Location: Anjeux
(47.8815°N, 6.2076°E)
Time: 06:00:57
(UTC+00:00)

Nauka - Visible Passes

Search period start: 23 September 2021 00:00
Search period end: 03 October 2021 00:00
Orbit: 419 x 424 km, 51.6° (Epoch: 22 September)

Date Brightness Start Highest point End Pass type
(mag) Time Alt. Az. Time Alt. Az. Time Alt. Az.
23 Sep ? 18:10:39 10° WSW 18:14:01 66° NNW 18:17:23 10° ENE visible
23 Sep ? 19:47:56 10° WNW 19:50:41 38° NNW 19:50:41 38° NNW visible
24 Sep ? 19:00:56 10° WNW 19:04:11 42° N 19:05:31 27° NE visible
24 Sep ? 20:38:00 10° WNW 20:38:31 14° WNW 20:38:31 14° WNW visible
25 Sep ? 18:13:54 10° W 18:17:10 45° N 18:20:21 11° ENE visible
25 Sep ? 19:51:04 10° WNW 19:53:20 35° NW 19:53:20 35° NW visible
26 Sep ? 19:04:07 10° WNW 19:07:23 44° N 19:08:09 37° NE visible
26 Sep ? 20:41:01 10° WNW 20:41:09 11° WNW 20:41:09 11° WNW visible
27 Sep ? 18:17:08 10° WNW 18:20:22 42° N 18:22:58 14° ENE visible
27 Sep ? 19:54:06 10° WNW 19:55:58 30° WNW 19:55:58 30° WNW visible
28 Sep ? 19:07:10 10° WNW 19:10:31 62° NNE 19:10:47 59° NE visible
29 Sep ? 18:20:13 10° WNW 18:23:32 51° NNE 18:25:38 20° E visible
29 Sep ? 19:57:08 10° WNW 19:58:38 23° W 19:58:38 23° W visible
30 Sep ? 19:10:09 10° WNW 19:13:31 71° SSW 19:13:31 71° SSW visible
01 Oct ? 18:23:12 10° WNW 18:26:35 83° NNE 18:28:27 25° ESE visible
01 Oct ? 20:00:30 10° W 20:01:26 15° W 20:01:26 15° W visible
02 Oct ? 17:36:16 10° WNW 17:39:37 64° NNE 17:42:58 10° E visible
02 Oct ? 19:13:17 10° W 19:16:19 31° SW 19:16:26 31° SSW visible
